Date String (YYYY-MM-DD hh:mm:ss) UTC,Instrument flags,Ambient pressure (hPa),Sample flow (lpm),Bypass flow (lpm),Sample temperature (°C),Ambient temperature (°C),ASC tube jacket temperature (°C),LED temperature (°C),Box temperature (°C),Sample RH (%),Span deviation,Mass concentration (μg/m³),Mass concentration (μg/m³),Mass concentration (μg/m³)
DateTimeUTC,F1_M11,P_M11,Q1_M11,Q2_M11,T1_M11,T2_M11,T3_M11,T4_M11,T5_M11,U1_M11,ZSPAN_M11,X0_M11,X2_M11,X1_M11
2022-04-23 23:00:00,,0816.7,5.02,0.00,23.4,22.5,00.0,32.3,25.3,09.4,0000.0,0002.47,0000.66,0000.36
2022-04-23 23:01:00,,0816.7,4.99,0.00,23.4,22.5,00.0,32.4,25.3,09.4,0000.0,0002.57,0000.66,0000.36
2022-04-23 23:02:00,,0816.5,5.02,0.00,23.4,22.5,00.0,32.4,25.3,09.4,0000.0,0002.52,0000.64,0000.37
2022-04-23 23:03:00,,0816.7,4.98,0.00,23.4,22.5,00.0,32.4,25.3,09.4,0000.0,0002.63,0000.68,0000.36
2022-04-23 23:04:00,,0816.8,5.01,0.00,23.4,22.5,00.0,32.4,25.3,09.4,0000.0,0002.95,0000.76,0000.35
2022-04-23 23:05:00,,0816.7,5.01,0.00,23.5,22.5,00.0,32.4,25.3,09.2,0000.0,0002.86,0000.79,0000.35
2022-04-23 23:06:00,,0816.7,4.99,0.00,23.5,22.5,00.0,32.4,25.3,09.1,0000.0,0003.04,0000.83,0000.36
2022-04-23 23:07:00,,0816.7,5.01,0.00,23.5,22.5,00.0,32.4,25.3,09.1,0000.0,0003.06,0000.82,0000.35
2022-04-23 23:08:00,,0816.9,5.01,0.00,23.5,22.5,00.0,32.4,25.3,08.7,0000.0,0003.07,0000.82,0000.35
2022-04-23 23:09:00,,0817.0,5.00,0.00,23.5,22.5,00.0,32.4,25.3,09.1,0000.0,0003.12,0000.84,0000.34
2022-04-23 23:10:00,,0817.3,4.99,0.00,23.5,22.5,00.0,32.4,25.3,09.2,0000.0,0003.20,0000.85,0000.34
2022-04-23 23:11:00,,0817.2,5.01,0.00,23.5,22.5,00.0,32.4,25.3,09.2,0000.0,0003.27,0000.87,0000.34
2022-04-23 23:12:00,,0817.3,4.99,0.00,23.5,22.6,00.0,32.4,25.3,09.5,0000.0,0003.16,0000.86,0000.33
2022-04-23 23:13:00,,0817.4,5.00,0.00,23.5,22.6,00.0,32.4,25.3,09.5,0000.0,0003.13,0000.84,0000.33
2022-04-23 23:14:00,,0817.4,5.00,0.00,23.5,22.6,00.0,32.4,25.3,09.3,0000.0,0003.06,0000.80,0000.33
2022-04-23 23:15:00,,0817.5,4.99,0.00,23.5,22.6,00.0,32.4,25.3,09.3,0000.0,0003.06,0000.70,0000.33
2022-04-23 23:16:00,,0817.7,5.00,0.00,23.5,22.6,00.0,32.4,25.3,09.2,0000.0,0002.61,0000.62,0000.33
2022-04-23 23:17:00,,0817.8,5.01,0.00,23.5,22.6,00.0,32.4,25.3,09.2,0000.0,0001.54,0000.57,0000.32
2022-04-23 23:18:00,,0817.7,5.01,0.00,23.5,22.7,00.0,32.4,25.3,09.5,0000.0,0001.47,0000.54,0000.32
2022-04-23 23:19:00,,0817.5,5.00,0.00,23.5,22.7,00.0,32.4,25.3,09.5,0000.0,0001.45,0000.51,0000.33
2022-04-23 23:20:00,,0817.4,5.00,0.00,23.5,22.7,00.0,32.4,25.4,09.6,0000.0,0001.42,0000.50,0000.33
2022-04-23 23:21:00,,0817.5,5.00,0.00,23.5,22.7,00.0,32.4,25.4,09.5,0000.0,0001.36,0000.50,0000.33
2022-04-23 23:22:00,,0817.4,5.00,0.00,23.5,22.7,00.0,32.4,25.4,09.6,0000.0,0001.29,0000.49,0000.34
2022-04-23 23:23:00,,0817.4,5.00,0.00,23.5,22.7,00.0,32.4,25.4,09.9,0000.0,0001.30,0000.49,0000.33
2022-04-23 23:24:00,,0817.4,4.99,0.00,23.5,22.6,00.0,32.4,25.4,10.0,0000.0,0001.31,0000.49,0000.34
2022-04-23 23:25:00,,0817.4,5.01,0.00,23.5,22.6,00.0,32.4,25.4,09.9,0000.0,0001.37,0000.54,0000.35
2022-04-23 23:26:00,,0817.4,5.01,0.00,23.6,22.7,00.0,32.4,25.4,09.9,0000.0,0001.07,0000.57,0000.36
2022-04-23 23:27:00,,0817.4,4.99,0.00,23.6,22.7,00.0,32.4,25.5,09.8,0000.0,0001.12,0000.59,0000.37
2022-04-23 23:28:00,,0817.4,4.99,0.00,23.6,22.7,00.0,32.4,25.5,09.7,0000.0,0001.23,0000.64,0000.37
2022-04-23 23:29:00,,0817.4,4.99,0.00,23.6,22.7,00.0,32.4,25.5,09.7,0000.0,0001.20,0000.64,0000.38
2022-04-23 23:30:00,,0817.5,5.00,0.00,23.6,22.6,00.0,32.4,25.4,09.8,0000.0,0001.09,0000.62,0000.38
2022-04-23 23:31:00,,0817.5,5.01,0.00,23.6,22.6,00.0,32.4,25.4,09.7,0000.0,0001.06,0000.62,0000.38
2022-04-23 23:32:00,,0817.5,5.00,0.00,23.6,22.6,00.0,32.4,25.4,09.6,0000.0,0001.05,0000.62,0000.38
2022-04-23 23:33:00,,0817.5,5.01,0.00,23.6,22.6,00.0,32.4,25.4,09.6,0000.0,0001.55,0000.60,0000.39
2022-04-23 23:34:00,,0817.6,5.00,0.00,23.6,22.6,00.0,32.5,25.4,09.7,0000.0,0002.24,0000.62,0000.39
2022-04-23 23:35:00,,0817.6,4.99,0.00,23.6,22.6,00.0,32.5,25.4,09.9,0000.0,0002.46,0000.61,0000.38
2022-04-23 23:36:00,,0817.7,5.00,0.00,23.6,22.6,00.0,32.5,25.4,09.8,0000.0,0002.34,0000.56,0000.37
2022-04-23 23:37:00,,0817.7,4.99,0.00,23.6,22.7,00.0,32.5,25.4,09.8,0000.0,0003.07,0000.53,0000.37
2022-04-23 23:38:00,,0817.7,5.02,0.00,23.6,22.6,00.0,32.5,25.4,09.6,0000.0,0003.26,0000.52,0000.36
2022-04-23 23:39:00,,0817.9,5.00,0.00,23.6,22.6,00.0,32.5,25.4,09.6,0000.0,0003.19,0000.49,0000.36
2022-04-23 23:40:00,,0817.9,4.98,0.00,23.6,22.6,00.0,32.5,25.4,09.8,0000.0,0003.21,0000.51,0000.36
2022-04-23 23:41:00,,0818.0,5.00,0.00,23.6,22.7,00.0,32.5,25.4,09.9,0000.0,0003.20,0000.50,0000.36
2022-04-23 23:42:00,,0818.0,5.00,0.00,23.6,22.7,00.0,32.5,25.4,09.8,0000.0,0003.30,0000.53,0000.36
2022-04-23 23:43:00,,0818.0,4.99,0.00,23.6,22.7,00.0,32.5,25.4,09.7,0000.0,0003.38,0000.57,0000.36
2022-04-23 23:44:00,,0818.0,5.00,0.00,23.6,22.7,00.0,32.5,25.3,09.7,0000.0,0002.83,0000.59,0000.35
2022-04-23 23:45:00,,0818.0,5.00,0.00,23.6,22.7,00.0,32.5,25.4,09.9,0000.0,0002.18,0000.57,0000.36
2022-04-23 23:46:00,,0818.0,5.01,0.00,23.6,22.7,00.0,32.5,25.3,09.7,0000.0,0001.99,0000.58,0000.36
2022-04-23 23:47:00,,0818.1,5.00,0.00,23.6,22.7,00.0,32.5,25.3,09.7,0000.0,0002.00,0000.58,0000.36
2022-04-23 23:48:00,,0818.1,4.99,0.00,23.5,22.7,00.0,32.5,25.3,09.7,0000.0,0001.40,0000.58,0000.36
2022-04-23 23:49:00,,0818.2,4.99,0.00,23.5,22.7,00.0,32.5,25.3,09.7,0000.0,0000.97,0000.55,0000.36
2022-04-23 23:50:00,,0818.2,5.01,0.00,23.6,22.7,00.0,32.5,25.3,09.8,0000.0,0001.84,0000.53,0000.35
2022-04-23 23:51:00,,0818.2,5.00,0.00,23.5,22.7,00.0,32.5,25.3,09.7,0000.0,0002.14,0000.52,0000.35
2022-04-23 23:52:00,,0818.1,5.00,0.00,23.6,22.7,00.0,32.5,25.4,09.9,0000.0,0002.12,0000.52,0000.35
2022-04-23 23:53:00,,0818.2,4.99,0.00,23.6,22.7,00.0,32.5,25.4,09.8,0000.0,0002.05,0000.48,0000.35
2022-04-23 23:54:00,,0818.2,5.00,0.00,23.6,22.7,00.0,32.5,25.4,09.8,0000.0,0001.97,0000.43,0000.34
2022-04-23 23:55:00,,0818.3,5.02,0.00,23.6,22.7,00.0,32.5,25.4,09.7,0000.0,0001.92,0000.41,0000.34
2022-04-23 23:56:00,,0818.3,4.99,0.00,23.6,22.7,00.0,32.5,25.3,09.8,0000.0,0002.11,0000.45,0000.34
2022-04-23 23:57:00,,0818.3,5.00,0.00,23.6,22.7,00.0,32.5,25.3,09.8,0000.0,0002.08,0000.45,0000.34
2022-04-23 23:58:00,,0818.4,5.00,0.00,23.6,22.7,00.0,32.5,25.3,09.7,0000.0,0002.11,0000.47,0000.34
2022-04-23 23:59:00,,0818.4,5.01,0.00,23.6,22.7,00.0,32.5,25.3,09.7,0000.0,0002.08,0000.46,0000.34
